This demonstration page uses our WeatherBlox Daily Observations layout. Learn more.

Hourly Observations for August 20, 2018

Temp ( °F °C ) Dew Point ( °F °C ) Humidity (%) Winds ( mph kmh ) Pressure ( in mb ) Visibility ( mi km ) Precip ( " mm )
12:15 am 00:15 Cloudy with Rain 61 16.2 61 16.2 100 100 NNW 9 15 29.91 1013 10 16.09344 0 0
12:35 am 00:35 Cloudy with Light Drizzle 61 16.2 61 16.2 100 100 NNW 10 17 29.88 1012 7 11.265408 0.01 0.254
12:55 am 00:55 Cloudy 61 16.3 61 16.3 100 100 NW 7 11 29.91 1013 10 16.09344 0.01 0.254
1:15 am 01:15 Cloudy with Drizzle 62 16.5 62 16.5 100 100 NW 12 19 29.88 1012 4 6.437376 0.01 0.254
1:35 am 01:35 Cloudy 62 16.5 62 16.5 100 100 NNW 14 22 29.88 1012 10 16.09344 0.01 0.254
1:55 am 01:55 Cloudy 62 16.6 62 16.6 100 100 NNW 9 15 29.88 1012 10 16.09344 0.01 0.254
2:15 am 02:15 Cloudy 62 16.5 61 16.2 98 98 NNW 16 26 29.88 1012 10 16.09344 0 0
2:35 am 02:35 Cloudy 61 16.2 61 15.9 98 98 NNW 13 20 29.91 1013 10 16.09344 0 0
2:55 am 02:55 Cloudy with Rain 60 15.8 60 15.5 98 98 NNW 16 26 29.91 1013 10 16.09344 0.02 0.508
3:15 am 03:15 Cloudy with Light Drizzle 60 15.7 60 15.5 99 99 NNW 14 22 29.91 1013 10 16.09344 0 0
3:35 am 03:35 Cloudy 60 15.7 60 15.4 98 98 NNW 15 24 29.91 1013 10 16.09344 0 0
3:55 am 03:55 Cloudy with Light Drizzle 60 15.6 60 15.3 98 98 NNW 14 22 29.94 1014 10 16.09344 0 0
4:15 am 04:15 Cloudy 60 15.7 59 15.2 97 97 NNW 13 20 29.91 1013 10 16.09344 0 0
4:35 am 04:35 Cloudy 60 15.7 59 15.1 96 96 NNW 15 24 29.91 1013 10 16.09344 0 0
4:55 am 04:55 Cloudy 60 15.5 59 15 97 97 NNW 15 24 29.94 1014 10 16.09344 0 0
5:15 am 05:15 Cloudy 60 15.4 59 14.9 97 97 NNW 17 28 29.94 1014 10 16.09344 0 0
5:35 am 05:35 Cloudy 59 15.2 58 14.6 96 96 NNW 18 30 29.94 1014 10 16.09344 0 0
5:55 am 05:55 Cloudy 59 15 58 14.5 97 97 NNW 16 26 29.94 1014 10 16.09344 0 0
6:15 am 06:15 Cloudy 59 15 58 14.3 96 96 NNW 13 20 29.97 1015 10 16.09344 0 0
6:35 am 06:35 Cloudy 59 14.9 58 14.3 96 96 NNW 13 20 29.97 1015 10 16.09344 0 0
6:55 am 06:55 Cloudy 58 14.7 57 14.1 96 96 NNW 15 24 29.97 1015 10 16.09344 0 0
7:15 am 07:15 Cloudy 58 14.6 57 14 96 96 NNW 16 26 29.97 1015 10 16.09344 0 0
7:35 am 07:35 Cloudy 58 14.5 56 13.6 94 94 NNW 17 28 29.97 1015 10 16.09344 0 0
7:55 am 07:55 Cloudy 58 14.5 56 13.6 94 94 NNW 18 30 30 1016 7 11.265408 0 0
8:15 am 08:15 Cloudy 58 14.5 56 13.5 94 94 NNW 12 19 30 1016 10 16.09344 0 0
8:35 am 08:35 Cloudy 58 14.3 56 13.5 95 95 NNW 15 24 30 1016 10 16.09344 0 0
8:55 am 08:55 Cloudy 58 14.4 57 13.7 96 96 NNW 15 24 30 1016 10 16.09344 0 0
9:15 am 09:15 Cloudy 58 14.6 57 13.7 94 94 NNW 14 22 30 1016 7 11.265408 0 0
9:35 am 09:35 Cloudy 59 15 57 13.7 92 92 NNW 15 24 30.03 1017 10 16.09344 0 0
9:55 am 09:55 Cloudy 59 15.1 56 13.6 91 91 NNW 16 26 30.03 1017 10 16.09344 0 0
10:15 am 10:15 Cloudy 60 15.6 57 13.9 90 90 N 17 28 30.03 1017 10 16.09344 0 0
10:35 am 10:35 Cloudy 60 15.8 57 13.9 89 89 NNW 18 30 30.03 1017 7 11.265408 0 0
10:55 am 10:55 Cloudy 62 16.7 57 13.8 83 83 NNW 18 30 30 1016 10 16.09344 0 0
11:15 am 11:15 Cloudy 64 17.9 58 14.7 82 82 NW 16 26 30 1016 10 16.09344 0 0
11:35 am 11:35 Cloudy 65 18.4 59 15 81 81 NNW 17 28 30 1016 10 16.09344 0 0
11:55 am 11:55 Mostly Cloudy 67 19.3 60 15.3 78 78 NNW 20 31 30 1016 10 16.09344 0 0
12:15 pm 12:15 Mostly Cloudy 67 19.6 59 15.1 75 75 NNW 22 35 30 1016 10 16.09344 0 0
12:35 pm 12:35 Mostly Cloudy 67 19.7 60 15.3 76 76 N 20 31 30 1016 10 16.09344 0 0
12:55 pm 12:55 Cloudy 68 19.9 60 15.4 75 75 NNW 15 24 30 1016 10 16.09344 0 0
1:15 pm 13:15 Cloudy 68 20.1 60 15.4 74 74 N 15 24 29.97 1015 10 16.09344 0 0
1:35 pm 13:35 Cloudy 68 20 60 15.4 75 75 N 14 22 30 1016 10 16.09344 0 0
1:55 pm 13:55 Cloudy 69 20.7 60 15.8 74 74 N 20 31 29.97 1015 10 16.09344 0 0
2:15 pm 14:15 Cloudy 69 20.5 60 15.6 74 74 N 15 24 29.97 1015 10 16.09344 0 0
2:35 pm 14:35 Cloudy 69 20.7 61 15.9 74 74 N 16 26 29.97 1015 10 16.09344 0 0
2:55 pm 14:55 Cloudy 70 21 60 15.7 72 72 N 15 24 29.97 1015 10 16.09344 0 0
3:15 pm 15:15 Cloudy 70 21 60 15.7 72 72 NNW 12 19 29.97 1015 10 16.09344 0 0
3:35 pm 15:35 Cloudy 69 20.8 60 15.6 72 72 N 16 26 29.97 1015 10 16.09344 0 0
3:55 pm 15:55 Mostly Cloudy 71 21.6 60 15.7 69 69 NNW 16 26 29.97 1015 10 16.09344 0 0
4:15 pm 16:15 Mostly Cloudy 71 21.4 59 15.2 68 68 NNW 14 22 30 1016 10 16.09344 0 0
4:35 pm 16:35 Cloudy 71 21.4 60 15.3 68 68 N 14 22 30 1016 10 16.09344 0 0
4:55 pm 16:55 Mostly Cloudy 71 21.7 60 15.6 68 68 N 17 28 30 1016 10 16.09344 0 0
5:15 pm 17:15 Mostly Cloudy 71 21.6 59 15.2 67 67 N 16 26 30 1016 10 16.09344 0 0
5:35 pm 17:35 Partly Cloudy 71 21.6 60 15.4 68 68 N 14 22 30 1016 10 16.09344 0 0
5:55 pm 17:55 Mostly Cloudy 71 21.5 60 15.4 68 68 N 15 24 29.97 1015 10 16.09344 0 0
6:15 pm 18:15 Partly Cloudy 70 21.2 60 15.3 69 69 N 17 28 30 1016 10 16.09344 0 0
6:35 pm 18:35 Sunny 69 20.8 60 15.5 72 72 N 10 17 30 1016 10 16.09344 0 0
6:55 pm 18:55 Sunny 69 20.6 60 15.3 72 72 N 13 20 30 1016 10 16.09344 0 0
7:15 pm 19:15 Sunny 68 20 59 15.2 74 74 N 10 17 30.03 1017 10 16.09344 0 0
7:35 pm 19:35 Sunny 66 19.1 60 15.5 80 80 N 9 15 30.03 1017 10 16.09344 0 0
7:55 pm 19:55 Sunny 65 18.6 60 15.6 83 83 NNE 8 13 30.03 1017 10 16.09344 0 0
8:15 pm 20:15 Sunny 64 17.6 60 15.8 89 89 NNE 7 11 30.03 1017 10 16.09344 0 0
8:35 pm 20:35 Clear 63 17 60 15.6 92 92 N 5 7 30.09 1019 10 16.09344 0 0
8:55 pm 20:55 Partly Cloudy with Mist and Fog 63 17 60 15.5 91 91 N 3 6 30.09 1019 2 3.218688 0 0
9:15 pm 21:15 Clear 61 16.2 60 15.5 96 96 N 5 7 30.09 1019 10 16.09344 0 0
9:35 pm 21:35 Clear 62 16.5 59 15.2 92 92 N 5 7 30.09 1019 10 16.09344 0 0
9:55 pm 21:55 Clear 62 16.4 59 15 91 91 N 7 11 30.09 1019 10 16.09344 0 0
10:15 pm 22:15 Clear 60 15.8 59 14.8 94 94 NNW 6 9 30.09 1019 10 16.09344 0 0
10:35 pm 22:35 Clear 60 15.7 59 14.8 94 94 NNW 6 9 30.09 1019 10 16.09344 0 0
10:55 pm 22:55 Clear 59 15.1 58 14.5 96 96 NNW 5 7 30.09 1019 7 11.265408 0 0
11:15 pm 23:15 Clear 59 15 58 14.5 97 97 NNW 6 9 30.09 1019 10 16.09344 0 0
11:35 pm 23:35 Clear 59 15.2 58 14.3 94 94 NNW 7 11 30.09 1019 10 16.09344 0 0
11:55 pm 23:55 Clear 59 15.1 58 14.2 94 94 NNW 7 11 30.09 1019 10 16.09344 0 0

Powered by AerisWeather